User: anonymous   Login
Location: Caltech
(34.1382°N, 118.1253°W)
Time: 19:33:03
(UTC-07:00)
Language:

Meteor 2-4 Rocket - Orbit

View from above orbital plane
View from above orbital plane
View from above satellite
View from above satellite

Ground track
Ground track

The orbit data is extracted from the following two-line orbital elements,

1 11289U 79021B   17146.52846913 -.00000081 +00000-0 -49951-4 0  9990
2 11289 081.2462 185.2778 0074821 295.3464 063.9972 14.11558617967512
Epoch (UTC): 26 May 2017 12:40:59
Eccentricity: 0.0074821
inclination: 81.2462°
perigee height: 800 km
apogee height: 908 km
right ascension of ascending node: 185.2778°
argument of perigee: 295.3464°
revolutions per day: 14.11558617
mean anomaly at epoch: 63.9972°
orbit number at epoch: 96751

The dashed part of the orbit path shows where the satellite is in the earth's shadow,  

DLR